[[{"header":{"parameterUnit":"m.s-1","parameterCategory":1,"la1":30.2991,"la2":30.254,"lo1":-89.0895,"lo2":-89.0444,"dy":0.0017,"dx":0.0017,"nx":28,"ny":28,"refTime":"2025-09-01T21:00:00:Z","depth":0,"parameterNumber":2,"parameterNumberName":"U-component_of_WINDS"},"data":[0,0,0,0,0,0,0,0,0,0,0,0,0,0,0,0,0,0,0,0,0,0,0,0,0,0,0,0,0,0,0,0,0,0,0,0,0,0,0,0,0,0,0,0,0,0,0,0,0,0,0,0,0,0,0,0,0,0,-3.0935,-3.0935,0,-3.0894,-3.0894,-3.0893,-3.0765,-3.0762,-3.076,-3.0757,-3.0718,-3.0719,-3.0721,0,0,0,0,0,0,0,0,0,0,0,0,0,-3.0908,-3.0909,-3.0935,-3.0935,-3.0934,-3.0894,-3.0894,-3.0893,-3.0766,-3.0762,-3.0759,-3.0756,-3.0717,-3.0719,-3.0721,0,0,0,0,0,0,0,0,0,0,0,0,0,-3.0899,-3.0909,-3.0935,-3.0866,-3.0859,-3.0894,-3.0894,-3.0893,-3.0766,-3.0762,-3.0758,-3.0754,-3.0717,-3.0719,-3.0721,-3.0822,0,0,-3.0729,-3.073,0,0,0,0,0,0,0,0,-3.0899,-3.09,-3.0877,-3.0871,-3.0863,-3.083,-3.087,-3.0869,-3.0768,-3.0802,-3.0757,-3.0752,-3.0759,-3.0758,-3.0759,-3.082,-3.0818,-3.0729,-3.0731,-3.0732,-3.0732,0,0,0,0,0,0,0,-3.09,-3.0901,-3.0919,-3.0876,-3.0868,-3.0838,-3.0832,-3.0869,-3.0805,-3.0798,-3.0789,-3.0786,-3.0755,-3.0757,-3.0758,-3.0818,-3.0729,-3.0731,-3.0733,-3.0734,-3.096,-3.0964,0,0,0,0,0,0,-3.091,-3.0902,-3.092,-3.0918,-3.0871,-3.0842,-3.0835,-3.0845,-3.0804,-3.0794,-3.0789,-3.078,-3.0755,-3.0755,-3.0756,-3.087,-3.0732,-3.0734,-3.0735,-3.0955,-3.0961,-3.0966,0,0,0,0,0,0,-3.091,-3.0913,-3.0922,-3.0908,-3.0906,-3.0847,-3.0859,-3.0847,-3.0849,-3.0797,-3.0786,-3.0804,-3.0752,-3.0752,-3.0806,-3.0867,-3.0735,-3.0737,-3.095,-3.0957,-3.0963,-3.1101,0,0,0,0,0,0,-3.091,-3.0914,-3.095,-3.0909,-3.0908,-3.0972,-3.0863,-3.0849,-3.0853,-3.0841,-3.0808,-3.0798,-3.0749,-3.0803,-3.0809,-3.0868,-3.0739,-3.0944,-3.0953,-3.0961,-3.109,-3.1111,-3.1129,0,0,0,0,0,-3.0909,-3.0991,-3.0952,-3.0955,-3.0951,-3.0976,-3.0975,-3.0916,-3.0859,-3.0895,-3.0863,-3.0799,-3.086,-3.081,-3.0815,-3.0876,-3.094,-3.0951,-3.0961,-3.1082,-3.1107,-3.1129,0,0,0,0,0,0,-3.104,-3.0984,-3.0941,-3.1011,-3.1,-3.0954,-3.0998,-3.0945,-3.0949,-3.0937,-3.0864,-3.0858,-3.0923,-3.0905,-3.085,-3.0972,-3.089,-3.0902,-3.098,-3.1004,-3.1023,-3.1026,-3.0741,0,0,0,0,0,-3.1078,-3.1101,-3.1051,-3.1118,-3.1114,-3.1058,-3.1067,-3.1022,-3.1007,-3.1002,-3.0972,-3.0961,-3.0978,-3.099,-3.1003,-3.1088,-3.108,-3.1133,-3.1153,-3.1169,-3.1179,-3.1224,-3.1247,-3.0999,-3.0999,-3.0999,0,0,-3.1154,-3.1126,-3.1146,-3.1144,-3.1129,-3.1156,-3.1054,-3.1087,-3.1107,-3.1007,-3.1055,-3.1035,-3.1018,-3.1088,-3.1117,-3.1075,-3.1246,-3.1182,-3.1195,-3.1197,-3.1237,-3.126,-3.1281,-3.1006,-3.1005,-3.1004,0,0,-3.1308,-3.1289,-3.1343,-3.1331,-3.131,-3.1273,-3.1286,-3.125,-3.1232,-3.1279,-3.1205,-3.1229,-3.1259,-3.125,-3.125,-3.1403,-3.1345,-3.141,-3.1511,-3.1555,-3.1575,-3.1592,-3.1646,-3.1667,-3.1421,-3.1421,-3.1422,0,-3.1406,-3.1442,-3.1378,-3.1415,-3.1417,-3.1328,-3.1383,-3.1375,-3.1361,-3.1364,-3.1317,-3.1354,-3.1337,-3.1404,-3.1442,-3.1445,-3.1458,-3.1412,-3.1577,-3.1593,-3.1608,-3.1659,-3.168,-3.1429,-3.1428,-3.1427,-3.1427,0,-3.1564,-3.1591,-3.1637,-3.1625,-3.1632,-3.1679,-3.1623,-3.1638,-3.1595,-3.1563,-3.1614,-3.159,-3.1596,-3.161,-3.1567,-3.1672,-3.1646,-3.159,-3.1505,-3.1641,-3.1688,-3.1707,-3.144,-3.1438,-3.1435,-3.1433,0,0,-3.1795,-3.1748,-3.1766,-3.176,-3.1732,-3.1752,-3.1797,-3.1802,-3.1817,-3.1811,-3.1846,-3.1875,-3.1823,-3.1823,-3.1779,-3.1819,-3.1942,-3.1756,-3.1755,-3.1791,-3.2056,-3.2098,-3.2122,-3.1905,-3.1908,-3.1911,-3.2058,0,-3.194,-3.201,-3.1955,-3.2035,-3.206,-3.1977,-3.2016,-3.2004,-3.1976,-3.1995,-3.1964,-3.1986,-3.1915,-3.1915,-3.195,-3.192,-3.1994,-3.1908,-3.1937,-3.1939,-3.1942,-3.2146,-3.2191,-3.233,-3.2076,-3.2079,-3.2081,0,-3.2117,-3.2119,-3.2202,-3.217,-3.2178,-3.2213,-3.2215,-3.2234,-3.2219,-3.2197,-3.2198,-3.2145,-3.2187,-3.2106,-3.2164,-3.2107,-3.2116,-3.2103,-3.2107,-3.2106,-3.2017,-3.215,-3.2373,-3.2394,-3.2109,-3.2107,-3.2105,0,-3.2277,-3.2301,-3.2353,-3.2351,-3.2315,-3.2342,-3.2329,-3.231,-3.2318,-3.232,-3.2325,-3.2333,-3.2337,-3.2345,-3.2296,-3.2242,-3.2361,-3.2276,-3.2344,-3.2345,-3.237,-3.2369,-3.2597,-3.2379,-3.2379,-3.2378,-3.2378,0,-3.2444,-3.2498,-3.2425,-3.2457,-3.2516,-3.2453,-3.2514,-3.2492,-3.2477,-3.2505,-3.2435,-3.2463,-3.2397,-3.2418,-3.2381,-3.2435,-3.2437,-3.2421,-3.241,-3.2426,-3.2428,-3.243,-3.2418,-3.2384,-3.2383,-3.2382,-3.2381,0,-3.2631,-3.2584,-3.2636,-3.2599,-3.2591,-3.2636,-3.2605,-3.2634,-3.2603,-3.2639,-3.2644,-3.2596,-3.2618,-3.257,-3.2586,-3.2561,-3.2637,-3.2611,-3.2642,-3.2633,-3.2703,-3.2697,-3.2939,-3.2967,-3.2733,-3.2735,-3.2737,0,-3.2739,-3.2779,-3.2746,-3.276,-3.275,-3.2773,-3.278,-3.2721,-3.2732,-3.2721,-3.2752,-3.2768,-3.2778,-3.2818,-3.2784,-3.2797,-3.277,-3.2854,-3.2771,-3.2787,-3.2771,-3.2768,-3.2772,-3.2871,-3.2873,-3.2876,-3.2878,0,-3.2937,-3.2912,-3.2925,-3.2931,-3.2942,-3.2944,-3.2941,-3.2957,-3.2894,-3.2911,-3.2932,-3.294,-3.2956,-3.2974,-3.2979,-3.2966,-3.2913,-3.2905,-3.2921,-3.2937,-3.2952,-3.2945,-3.2687,-3.2899,-3.2896,-3.2895,-3.2894,-3.2893,-3.3087,-3.3119,-3.3101,-3.3119,-3.3111,-3.311,-3.3136,-3.3109,-3.3125,-3.3133,-3.3098,-3.3128,-3.3115,-3.3116,-3.311,-3.3133,-3.3095,-3.3119,-3.3125,-3.3131,-3.3142,-3.295,-3.3134,-3.3133,-3.3133,-3.3132,-3.3132,0,-3.328,-3.3265,-3.3282,-3.328,-3.3295,-3.3243,-3.3238,-3.3254,-3.328,-3.3273,-3.3284,-3.331,-3.3327,-3.3296,-3.3309,-3.3334,-3.3309,-3.3339,-3.3336,-3.3334,-3.3175,-3.316,-3.3358,-3.3358,-3.3358,-3.3358,-3.3358,-3.3358,-3.3382,-3.3433,-3.3407,-3.3454,-3.3439,-3.3467,-3.3469,-3.3469,-3.3462,-3.3494,-3.3508,-3.3487,-3.3471,-3.3482,-3.3496,-3.3487,-3.3495,-3.3533,-3.3515,-3.3367,-3.3345,-3.3324,-3.3309,-3.3535,-3.3536,-3.3671,-3.3673,-3.3674]},{"header":{"parameterUnit":"m.s-1","parameterCategory":1,"la1":30.2991,"la2":30.254,"lo1":-89.0895,"lo2":-89.0444,"dy":0.0017,"dx":0.0017,"nx":28,"ny":28,"refTime":"2025-09-01T21:00:00:Z","depth":0,"parameterNumber":3,"parameterNumberName":"V-component_of_WINDS"},"data":[0,0,0,0,0,0,0,0,0,0,0,0,0,0,0,0,0,0,0,0,0,0,0,0,0,0,0,0,0,0,0,0,0,0,0,0,0,0,0,0,0,0,0,0,0,0,0,0,0,0,0,0,0,0,0,0,0,0,2.1196,2.1197,0,2.1227,2.1227,2.1228,2.1249,2.125,2.125,2.125,2.1279,2.1279,2.128,0,0,0,0,0,0,0,0,0,0,0,0,0,2.1155,2.1155,2.1196,2.1197,2.1197,2.1227,2.1227,2.1228,2.1249,2.125,2.125,2.125,2.1279,2.1279,2.128,0,0,0,0,0,0,0,0,0,0,0,0,0,2.1178,2.1156,2.1196,2.1212,2.1213,2.1227,2.1227,2.1228,2.1249,2.125,2.125,2.125,2.1278,2.1279,2.128,2.128,0,0,2.1283,2.1283,0,0,0,0,0,0,0,0,2.1176,2.1179,2.1209,2.1211,2.1212,2.1235,2.1223,2.1245,2.1249,2.1236,2.125,2.125,2.1264,2.1266,2.1271,2.1281,2.1283,2.1283,2.1284,2.1284,2.1284,0,0,0,0,0,0,0,2.1175,2.1178,2.1208,2.1209,2.1211,2.1216,2.122,2.1227,2.1248,2.1237,2.1238,2.1242,2.1265,2.127,2.1272,2.1283,2.1283,2.1284,2.1284,2.1285,2.1295,2.1295,0,0,0,0,0,0,2.1171,2.1177,2.1207,2.1209,2.1195,2.1217,2.1221,2.1227,2.1248,2.1251,2.1242,2.1243,2.1268,2.1271,2.1273,2.1274,2.1284,2.1285,2.1285,2.1295,2.1295,2.1295,0,0,0,0,0,0,2.117,2.1174,2.1206,2.1193,2.1198,2.1217,2.1224,2.1228,2.1233,2.1251,2.1255,2.1243,2.1269,2.1272,2.1278,2.1275,2.1285,2.1286,2.1296,2.1295,2.1295,2.1277,0,0,0,0,0,0,2.1169,2.1173,2.1174,2.1193,2.1199,2.1212,2.1224,2.1228,2.1235,2.1237,2.1254,2.1257,2.1269,2.1277,2.1279,2.1277,2.1287,2.1296,2.1296,2.1295,2.1278,2.1276,2.1274,0,0,0,0,0,2.1167,2.1167,2.1174,2.1177,2.12,2.1211,2.1214,2.1229,2.1234,2.1235,2.1247,2.1256,2.1276,2.1277,2.128,2.1278,2.1296,2.1296,2.1295,2.1278,2.1276,2.1274,0,0,0,0,0,0,2.1145,2.117,2.1177,2.1183,2.1195,2.1215,2.1216,2.1226,2.1236,2.1237,2.1254,2.1258,2.1263,2.1271,2.1273,2.1279,2.1287,2.1287,2.1273,2.1271,2.127,2.1267,2.1287,0,0,0,0,0,2.1142,2.115,2.117,2.1173,2.1179,2.1196,2.1202,2.1212,2.1225,2.123,2.1242,2.1253,2.1262,2.1267,2.1276,2.1279,2.1283,2.1279,2.1277,2.1276,2.1275,2.1277,2.1276,2.1293,2.1293,2.1293,0,0,2.1133,2.1147,2.1151,2.1169,2.118,2.1187,2.12,2.1208,2.1213,2.1231,2.1238,2.1247,2.1261,2.1266,2.1269,2.1273,2.1271,2.1275,2.1274,2.1274,2.1277,2.1275,2.1273,2.1293,2.1293,2.1293,0,0,2.1121,2.1133,2.1137,2.1148,2.1164,2.1175,2.1176,2.1195,2.1202,2.121,2.1223,2.123,2.1244,2.1253,2.126,2.1252,2.1262,2.1255,2.1245,2.1247,2.1246,2.1245,2.1242,2.124,2.1254,2.1254,2.1254,0,2.1109,2.1121,2.1138,2.1145,2.1152,2.1169,2.1173,2.1182,2.12,2.1204,2.1209,2.1228,2.1238,2.1246,2.1244,2.1249,2.125,2.1253,2.1245,2.1244,2.1243,2.124,2.1239,2.1253,2.1254,2.1254,2.1254,0,2.1104,2.1113,2.1114,2.1132,2.1139,2.1144,2.1161,2.1167,2.1177,2.1188,2.1195,2.1209,2.1221,2.1223,2.1232,2.1232,2.1234,2.1242,2.125,2.124,2.1238,2.1237,2.1252,2.1252,2.1253,2.1253,0,0,2.1079,2.1107,2.1107,2.1115,2.1134,2.1141,2.1147,2.1159,2.1163,2.1175,2.118,2.1192,2.12,2.1207,2.1217,2.1219,2.1212,2.1227,2.1227,2.1223,2.1212,2.1205,2.1204,2.1219,2.1218,2.1218,2.121,0,2.107,2.1082,2.1098,2.1105,2.1112,2.1129,2.1134,2.1146,2.1157,2.1164,2.1176,2.1184,2.1193,2.1198,2.1201,2.1212,2.121,2.1213,2.1223,2.1223,2.1218,2.1203,2.1196,2.1188,2.121,2.1209,2.1209,0,2.1061,2.1073,2.1081,2.1099,2.1103,2.1108,2.112,2.1128,2.1142,2.1149,2.1158,2.1169,2.1176,2.1184,2.1193,2.1195,2.1199,2.1206,2.1206,2.1207,2.1215,2.1203,2.1186,2.1184,2.1208,2.1208,2.1208,0,2.1042,2.1059,2.1066,2.1073,2.1095,2.1098,2.1107,2.1121,2.1128,2.1139,2.1143,2.1154,2.116,2.1168,2.1183,2.1187,2.119,2.1199,2.1196,2.1195,2.1195,2.1194,2.1178,2.1199,2.1199,2.1199,2.1199,0,2.103,2.1033,2.1058,2.1062,2.1067,2.1084,2.1088,2.1099,2.1112,2.1118,2.1133,2.1138,2.1157,2.1164,2.1175,2.118,2.1183,2.1189,2.1192,2.1187,2.1186,2.119,2.1191,2.1198,2.1199,2.1199,2.1199,0,2.1008,2.1025,2.1033,2.1054,2.1059,2.1062,2.1079,2.1083,2.1095,2.1103,2.1106,2.1124,2.1133,2.1148,2.1162,2.1169,2.1172,2.1177,2.1168,2.117,2.1165,2.1165,2.115,2.1148,2.1171,2.117,2.117,0,2.0999,2.1003,2.1024,2.103,2.1039,2.1047,2.1054,2.1072,2.1078,2.1095,2.1097,2.1108,2.1117,2.1131,2.1145,2.1156,2.1161,2.1155,2.1162,2.1158,2.116,2.1159,2.116,2.1152,2.1152,2.1152,2.1152,0,2.0981,2.0989,2.0999,2.1012,2.1021,2.1032,2.1043,2.1046,2.1066,2.1073,2.1083,2.1091,2.1105,2.1115,2.1128,2.1137,2.1147,2.1149,2.1149,2.1144,2.1138,2.1141,2.1162,2.1149,2.115,2.115,2.115,2.115,2.0965,2.0969,2.0985,2.0996,2.1007,2.1017,2.1022,2.1035,2.1044,2.1058,2.1068,2.1077,2.1091,2.1109,2.1117,2.1124,2.1129,2.1129,2.1128,2.1128,2.1126,2.1138,2.1127,2.1127,2.1127,2.1127,2.1127,0,2.0948,2.0959,2.0969,2.0985,2.0993,2.1004,2.1017,2.1023,2.1032,2.1044,2.1053,2.1065,2.1075,2.109,2.1101,2.1104,2.1109,2.1106,2.1106,2.1108,2.1121,2.112,2.1102,2.1102,2.1102,2.1102,2.1102,2.1102,2.094,2.0947,2.0957,2.097,2.0981,2.0991,2.0997,2.1007,2.1017,2.103,2.1038,2.1049,2.1062,2.1074,2.1084,2.1088,2.1091,2.1087,2.1092,2.1104,2.1107,2.1109,2.1108,2.1087,2.1087,2.1078,2.1078,2.1077]}]]